Regional Weather Roundup
Issued by NWS Little Rock, AR

Home | Current Version | Previous Version | Graphics & Text | Print | Product List | Glossary On
Versions: 1 2 3 4 5 6 7 8 9 10 11 12 13 14 15 16 17 18 19 20 21 22 23 24 25 26 27 28 29 30 31 32 33 34 35 36 37 38 39 40 41 42 43 44 45 46 47 48 49 50
000
ASUS44 KLZK 290405
RWRLZK

WEATHER ROUNDUP FOR ARKANSAS
NATIONAL WEATHER SERVICE LITTLE ROCK AR
1100 PM CDT THU MAY 28 2015

NOTE: "FAIR" INDICATES FEW OR NO CLOUDS BELOW 12,000 FEET WITH NO
SIGNIFICANT WEATHER AND/OR OBSTRUCTIONS TO VISIBILITY.

ARZ001-003-010-029-290500-
NORTHWEST ARKANSAS

CITY           SKY/WX    TMP DP  RH WIND       PRES   REMARKS
FAYETTEVILLE   PTCLDY    63  63 100 E3        30.06R
FORT SMITH     MOCLDY    69  65  86 E6        30.03R
HARRISON       CLOUDY    65  62  90 SE9       30.08R
BENTONVILLE    PTCLDY    68  61  77 SE6       30.05S
ROGERS         PTCLDY    68  64  87 SE5       30.06R
SILOAM SPGS    MOCLDY    66  59  77 E7        30.05R
$$

ARZ004-005-016-290500-
NORTH CENTRAL ARKANSAS

CITY           SKY/WX    TMP DP  RH WIND       PRES   REMARKS
BATESVILLE     MOCLDY    66  64  94 CALM      30.07R
FLIPPIN        MOCLDY    70  63  78 CALM      30.06R
MTN HOME       CLOUDY    67  64  90 CALM      30.06R
$$

ARZ040-041-290500-
WEST CENTRAL ARKANSAS

CITY           SKY/WX    TMP DP  RH WIND       PRES   REMARKS
MENA           MOCLDY    68  68 100 CALM      30.06R
MOUNT IDA      PTCLDY    66  64  93 CALM      30.04S
$$

ARZ009-017-025-026-028-290500-
NORTHEAST ARKANSAS

CITY           SKY/WX    TMP DP  RH WIND       PRES   REMARKS
CORNING        CLOUDY    73  70  88 SE7       30.06S
JONESBORO      PTCLDY    74  68  81 S7        30.06R
NEWPORT        CLEAR     74  70  87 S5        30.07R
WALNUT RIDGE   MOCLDY    73  66  78 S6        30.06S
BLYTHEVILLE    CLEAR     73  69  87 S8        30.08R
$$

ARZ022-023-033-042-044-290500-
CENTRAL ARKANSAS

CITY           SKY/WX    TMP DP  RH WIND       PRES   REMARKS
LITTLE ROCK    MOCLDY    70  65  84 CALM      30.06R
N LITTLE ROCK  MOCLDY    69  67  96 S5        30.06R
JACKSONVILLE   PTCLDY    67  67  99 E2        30.06R
SEARCY         PTCLDY    67  66  97 CALM      30.08R
HOT SPRINGS    FAIR      67  65  93 E7        30.06R
RUSSELLVILLE   MOCLDY    68  67  96 CALM      30.06R
CLINTON        MOCLDY    64  64 100 CALM      30.10R FOG
$$

ARZ036-290500-
EAST ARKANSAS

CITY           SKY/WX    TMP DP  RH WIND       PRES   REMARKS
WEST MEMPHIS   PTCLDY    73  69  87 SE7       30.05S
$$

ARZ050-053-066-070-073-290500-
SOUTHWEST ARKANSAS

CITY           SKY/WX    TMP DP  RH WIND       PRES   REMARKS
ARKADELPHIA    FAIR      69  69 100 N3        30.05R
CAMDEN         PTCLDY    66  64  94 CALM      30.04R FOG
TEXARKANA      PTCLDY    71  68  90 SE5       30.02S
EL DORADO      MOCLDY    69  66  90 SE5       30.04R
DE QUEEN       CLOUDY    69  67  93 E20       30.01R
$$

ARZ056-057-069-290500-
SOUTHEAST ARKANSAS

CITY           SKY/WX    TMP DP  RH WIND       PRES   REMARKS
PINE BLUFF     MOCLDY    69  67  93 E5        30.06R
STUTTGART      MOCLDY    72  66  83 S3        30.06R
MONTICELLO     MOCLDY    71  68  90 CALM      30.05R

$$




USA.gov is the U.S. government's official web portal to all federal, state and local government web resources and services.